Regional Weather Roundup
Issued by NWS Northern Indiana

Home | Current Version | Previous Version | Text Only | Print | Product List | Glossary On
Versions: 1 2 3 4 5 6 7 8 9 10 11 12 13 14 15 16 17 18 19 20 21 22 23 24 25 26 27 28 29 30 31 32 33 34 35 36 37 38 39 40 41 42 43 44 45 46 47 48 49 50
000
ASUS43 KIWX 020810
RWRIWX

KIWX WEATHER ROUNDUP
NATIONAL WEATHER SERVICE NORTHERN INDIANA
400 AM EDT SUN AUG 02 2015

NOTE: "FAIR" INDICATES FEW OR NO CLOUDS BELOW 12,000 FEET WITH NO
SIGNIFICANT WEATHER AND/OR OBSTRUCTIONS TO VISIBILITY.

* THESE STATIONS ARE NOT UNDER NWS QUALITY CONTROL. THEY ALSO MAY NOT
  REPORT WEATHER SUCH AS PRECIPITATION OR FOG.

INZ001>027-020900-
NORTHERN INDIANA

CITY           SKY/WX    TMP DP  RH WIND       PRES   REMARKS
GARY*          CLEAR     72  65  81 SW3       29.90S
VALPARAISO     CLEAR     68  63  84 SW7       29.92S
MICHIGAN CITY* CLEAR     68  61  77 SW6       29.90S
LAPORTE*       CLEAR     68  67  98 SW5       29.91F
KNOX*          CLEAR     64  63  94 SW6       29.91S
SOUTH BEND     CLEAR     69  64  84 SW9       29.91S
GOSHEN         CLEAR     66  62  87 SW8       29.91S
MONTICELLO*    CLEAR     66  64  91 S6        29.93S
LOGANSPORT*    CLEAR     64  59  82 SW7       29.95S
ROCHESTER*     CLEAR     70  63  78 SW6       29.93S
WARSAW*        CLEAR     68  63  83 SW7       29.92S
ANGOLA*        CLEAR     66  63  88 CALM      29.91S
FORT WAYNE     PTCLDY    66  61  84 SW8       29.93F
HUNTINGTON*    CLEAR     67  62  82 SW3       29.93F
PERU/GRISSOM   CLEAR     65  61  87 SW8       29.94S
MARION*        CLEAR     63  58  84 SW7       29.96S

$$
INZ028>050-020900-
CENTRAL INDIANA

CITY           SKY/WX    TMP DP  RH WIND       PRES   REMARKS
LAFAYETTE      CLEAR     63  61  93 CALM      29.94F
KOKOMO*        CLEAR     66  57  72 SW8       29.96S
MUNCIE*        PTCLDY    67  58  72 SW7       29.97S
INDIANAPOLIS   MOCLDY    65  59  81 SW6       29.96F

$$
MIZ043>046-050>051-056>058-064>065-071>073-077>080-020900-
SOUTHWEST LOWER MICHIGAN

CITY           SKY/WX    TMP DP  RH WIND       PRES   REMARKS
BATTLE CREEK   CLEAR     66  59  78 SW5       29.89F
BENTON HARBOR  CLEAR     74  66  76 SW10      29.88R
COLDWATER*     CLEAR     63  60  90 CALM      29.90F
HILLSDALE*     CLEAR     67  63  86 SW3       29.91F
HOLLAND        CLEAR     64  58  80 S3        29.86S
GRAND RAPIDS   CLEAR     64  57  78 S7        29.86S
KALAMAZOO      CLEAR     67  61  81 SW7       29.88F
STURGIS*       CLEAR     64  61  88 S3        29.90S
THREE RIVERS*  FAIR      64  61  90 SW3       29.90S

$$
OHZ001>008-015>018-024>025-020900-
NORTHWEST OHIO

CITY           SKY/WX    TMP DP  RH WIND       PRES   REMARKS
WAUSEON*       FAIR      64  63  94 W6        29.91S
DEFIANCE       CLEAR     67  60  78 CALM      29.91S
FINDLAY        PTCLDY    69  59  70 SW7       29.92S
TOLEDO EXPRESS CLEAR     65  58  78 SW5       29.90F
TOLEDO METCALF CLEAR     68  58  70 SW8       29.91S
LIMA           CLEAR     68  58  70 SW7       29.95S

$$
AND FOR LAKE MICHIGAN COASTAL AND OPEN LAKE BUOY OBSERVATIONS

STATION/POSITION TEMP    WIND        PRES    VSBY  WAVE
                 AIR SEA DIR/SP/G                  HT/PER
                 (F)     (DEG/KT/KT) (MB)    (MI)  (FT/S)
CALUMET HARBOR    75     220/  4/  8   N/A
MICHIGAN CITY     72     180/ 11/ 13   N/A
BURNS HARBOR      74     210/ 10/ 15 1012.5F
SAINT JOSEPH      75     190/ 13/ 16 1012.9R
4 MI NW BRIDGMAN  74 73  260/ 12/ 16   N/A           2/ 4
MICHIGAN CITY     74 74  240/ 14/ 16   N/A           2/ 3

$$
&&



USA.gov is the U.S. government's official web portal to all federal, state and local government web resources and services.